星链-5593 (STARLINK-5593 )

导读

STARLINK-5593是美国星链计划中的一颗卫星,于2023年3月3日发射升空。它隶属于SpaceX公司打造的星链卫星互联网星座,主要任务是为全球范围内用户提供低延迟、高速率的宽带互联网接入服务,填补偏远地区网络覆盖空白,推动全球互联网络覆盖进一步完善。

Basic Information
目录编号:
55763
目录名称:
STARLINK-5593
国际标识:
2023-028Y
轨道中心:
EARTH
卫星名称:
星链-5593
卫星全名:
星链-5593 (STARLINK-5593 )
卫星状态:
在轨 (已飞行1200 天)
发射日期:
2023-03-03 UTC
国别 :
美国 (US)
星等 :
--
Orbit Information
数据来源 国际轨道数据 AOE轨道数据
星历时间 2026-06-15T06:55:57+0800
6小时前
查看轨道信息
2026-06-11T10:00:00+0800
4天前
查看轨道信息
半长轴 6950.194km 6950.189km
偏心率 0.000311 0.0002941
轨道倾角 70.000° 70.002°
近地点辐角 268.021° 274.374°
升交点赤经 359.055° 8.819°
平近点角 92.059° 85.073°
近地点 569.895km 570.007km
远地点 574.219km 574.097km
周期 96.107分钟 96.107分钟
每日圈数 14.983299 14.983315
Detailed Information
固有亮度:
5
最大亮度:
2.5
卫星平台:
Starlink v1.5
覆盖范围:
全球
运营商:
太空探索技术公司
运营商所在国:
美国
制造商(研发单位):
太空探索技术公司
制造商所在国:
美国
使用方式:
暂无
Satellite Introduction
星链(Starlink)计划是由太空探索技术公司(SpaceX)提出的一个巨型低轨卫星互联网星座项目,计划在2019年至2024年间在太空搭建由约1.2万颗卫星组成的“星链”网络,其中1584颗将部署在地球上空550千米处的近地轨道,并从2020年开始工作。该卫星仍在工作。
2D Orbit Map
3D Orbit Map
Orbit Altitude Analysis Chart
Orbit Inclination Analysis Chart
Orbit Comprehensive Analysis Chart
View Comprehensive Chart